< < Back
Terminal Aerodrome Forecast


Current Version              Previous Versions:   1  2  3  4  5  6  7  8  9  

Terminal Aerodrome Forecast

762
FTUS44 KMRX 020029 AAB
TAFTYS
TAF AMD
KTYS 020029Z 0200/0224 23011KT 4SM BR VCTS SCT050CB BKN200
      TEMPO 0200/0202 VRB16G28KT 2SM -TSRA OVC030CB
     FM020200 22006KT P6SM SCT060 BKN250
     FM020900 22003KT 5SM BR SCT015 BKN150
     FM021300 22008KT P6SM SCT035 BKN120
     FM022100 23010KT P6SM VCTS SCT050CB OVC070=



Latest METAR

898
SAUS80 KWBC 021200 RRB
MTRTYS
METAR KTYS 021153Z 28003KT 10SM BKN100 BKN250 18/17 A3002 RMK AO2 SLP156
70009 T01830167 10194 20172 51008


USA.gov is the U.S. government's official web portal to all federal, state and local government web resources and services.